ROMMA est une association bénévole à but non lucratif. Votre soutien est indispensable : ADHERER à ROMMA ou FAIRE un DON

Le Versoud - (38, Isère)

Vallée du Grésivaudan (220 m)   Longitude: 05° 51' 44" E   Latitude: 45° 13' 06" N Station partenaire n°6
 

Détail journalier du     <<     >>

Température Humidité Pression Vent Dir Rafale Dir. rafale Ensol.
Heure (°C) (%) (hPa) (km/h) (km/h) (min)
01:00 19.379101400---0
02:00 18.478101400---0
03:00 17.680101400---0
04:00 16.783101300---0
05:00 16.583101300---0
06:00 16.183101300---0
07:00 15.885101400---0
08:00 18.479101400---40
09:00 20.669101400---60
10:00 23.258101300---60
11:00 24.650101300---60
12:00 26.151101305E45
13:00 26.448101202E5
14:00 27.745101106ENE30
15:00 29.236101105NNO60
16:00 30.138101003NO50
17:00 30.238101005NO60
18:00 31.336101003NO60
19:00 30.736100905NO60
20:00 29.530101008NNE60
21:00 26.537101003NNE20
22:00 23.943101002NNE0
23:00 22.0521011010NNE0
minuit 20.357101100---0

Graphique du 17-07-2019

 

Serveur OMMA